Location: Grossmotten
(48.5500°N, 15.3833°E)
Time: 04:49:46
(UTC+00:00)

Cosmos 1356 Rocket - Pass Details

Date: 15 November 2019
Orbit: 543 x 598 km, 81.2° (Epoch: 14 December)

Event Time Altitude Azimuth Distance (km) Brightness Sun altitude
Exits shadow 04:11:57 41° 295° (WNW) 870 3.8 -18.7°
Maximum altitude 04:12:40 46° 265° (W) 809 3.7 -18.6°
Drops below altitude 10° 04:16:46 10° 192° (SSW) 1,928 6.0 -18.0°
Sets 04:19:01 0° 186° (S) 2,820 7.0 -17.6°
